• In Hungary
  • List of Countries
  • For 7 days
  • Water Temperature
  • Satellite Maps
  • Weather Map
  • News
  • Weather Widgets
  • user-avatar
    Login

    Hourly Weather Santa Fe

    Today, 22 October, Sunday

    Time Temperature Precipitation Wind Pressure Humidity
    00:00 +3°C° 0 mm 3 mps 588 mmHg 29%
    01:00 +3°C° 0 mm 2 mps 588 mmHg 30%
    02:00 +3°C° 0 mm 2 mps 588 mmHg 30%
    03:00 +3°C° 0 mm 2 mps 588 mmHg 31%
    04:00 +3°C° 0 mm 2 mps 588 mmHg 32%
    05:00 +2°C° 0 mm 2 mps 589 mmHg 32%
    06:00 +4°C° 0 mm 2 mps 590 mmHg 30%
    07:00 +6°C° 0 mm 2 mps 591 mmHg 28%
    08:00 +8°C° 0 mm 2 mps 592 mmHg 26%
    09:00 +10°C° 0 mm 2 mps 593 mmHg 24%
    10:00 +12°C° 0 mm 3 mps 593 mmHg 22%
    11:00 +14°C° 0 mm 4 mps 594 mmHg 21%
    12:00 +15°C° 0 mm 5 mps 594 mmHg 21%
    13:00 +16°C° 0 mm 5 mps 594 mmHg 22%
    14:00 +17°C° 0 mm 6 mps 594 mmHg 22%
    15:00 +16°C° 0 mm 5 mps 593 mmHg 26%
    16:00 +14°C° 0 mm 4 mps 592 mmHg 30%
    17:00 +13°C° 0 mm 4 mps 592 mmHg 33%
    18:00 +12°C° 0 mm 4 mps 592 mmHg 36%
    19:00 +10°C° 0 mm 3 mps 592 mmHg 38%
    20:00 +9°C° 0 mm 3 mps 591 mmHg 41%
    21:00 +8°C° 0 mm 3 mps 591 mmHg 41%
    22:00 +8°C° 0 mm 3 mps 591 mmHg 41%
    23:00 +8°C° 0 mm 3 mps 591 mmHg 42%

    Tomorrow, 23 October, Monday

    Time Temperature Precipitation Wind Pressure Humidity
    00:00 +8°C° 0 mm 3 mps 591 mmHg 41%
    01:00 +7°C° 0 mm 3 mps 591 mmHg 41%
    02:00 +7°C° 0 mm 3 mps 591 mmHg 40%
    03:00 +7°C° 0 mm 3 mps 591 mmHg 40%
    04:00 +7°C° 0 mm 3 mps 591 mmHg 39%
    05:00 +7°C° 0 mm 3 mps 591 mmHg 39%
    06:00 +9°C° 0 mm 3 mps 592 mmHg 36%
    07:00 +11°C° 0 mm 3 mps 593 mmHg 34%
    08:00 +13°C° 0 mm 2 mps 594 mmHg 31%
    09:00 +14°C° 0 mm 3 mps 595 mmHg 28%
    10:00 +18°C° 0 mm 3 mps 595 mmHg 24%
    11:00 +20°C° 0 mm 3 mps 596 mmHg 21%
    12:00 +20°C° 0 mm 3 mps 596 mmHg 21%
    13:00 +21°C° 0 mm 3 mps 595 mmHg 21%
    14:00 +21°C° 0 mm 4 mps 595 mmHg 21%
    15:00 +20°C° 0 mm 3 mps 594 mmHg 25%
    16:00 +18°C° 0 mm 3 mps 594 mmHg 30%
    17:00 +16°C° 0 mm 3 mps 593 mmHg 35%
    18:00 +14°C° 0 mm 3 mps 593 mmHg 39%
    19:00 +13°C° 0 mm 2 mps 593 mmHg 44%
    20:00 +10°C° 0 mm 2 mps 593 mmHg 49%
    21:00 +10°C° 0 mm 3 mps 593 mmHg 51%
    22:00 +9°C° 0 mm 3 mps 593 mmHg 52%
    23:00 +7°C° 0 mm 4 mps 594 mmHg 54%

    Day after tomorrow, 24 October, Tuesday

    Time Temperature Precipitation Wind Pressure Humidity
    00:00 +7°C° 0 mm 4 mps 594 mmHg 59%
    01:00 +6°C° 0 mm 4 mps 594 mmHg 63%
    02:00 +5°C° 0 mm 4 mps 594 mmHg 68%
    03:00 +5°C° 0 mm 3 mps 593 mmHg 69%
    04:00 +4°C° 0 mm 3 mps 593 mmHg 71%
    05:00 +4°C° 0 mm 3 mps 593 mmHg 72%
    06:00 +5°C° 0 mm 3 mps 594 mmHg 67%
    07:00 +5°C° 0 mm 3 mps 595 mmHg 62%
    08:00 +7°C° 0 mm 3 mps 595 mmHg 57%
    09:00 +8°C° 0 mm 4 mps 596 mmHg 51%
    10:00 +10°C° 0 mm 4 mps 596 mmHg 46%
    11:00 +12°C° 0 mm 4 mps 597 mmHg 40%
    12:00 +13°C° 0 mm 3 mps 596 mmHg 38%
    13:00 +13°C° 0 mm 3 mps 596 mmHg 37%
    14:00 +14°C° 0 mm 3 mps 595 mmHg 35%
    15:00 +14°C° 0 mm 2 mps 595 mmHg 39%
    16:00 +13°C° 0 mm 2 mps 594 mmHg 42%
    17:00 +12°C° 0 mm 2 mps 594 mmHg 46%
    18:00 +10°C° 0 mm 2 mps 594 mmHg 50%
    19:00 +9°C° 0 mm 2 mps 594 mmHg 54%
    20:00 +7°C° 0 mm 2 mps 594 mmHg 57%
    21:00 +7°C° 0 mm 2 mps 594 mmHg 59%
    22:00 +7°C° 0 mm 1 mps 593 mmHg 61%
    23:00 +7°C° 0 mm 1 mps 593 mmHg 63%

    25 October, Wednesday

    Time Temperature Precipitation Wind Pressure Humidity
    00:00 +7°C° 0 mm 1 mps 593 mmHg 64%
    01:00 +6°C° 0 mm 1 mps 593 mmHg 66%
    02:00 +6°C° 0 mm 1 mps 592 mmHg 67%
    03:00 +6°C° 0 mm 1 mps 592 mmHg 68%
    04:00 +5°C° 0 mm 1 mps 591 mmHg 68%
    05:00 +5°C° 0 mm 1 mps 591 mmHg 69%
    06:00 +7°C° 0 mm 1 mps 592 mmHg 61%
    07:00 +9°C° 0 mm 1 mps 593 mmHg 53%
    08:00 +10°C° 0 mm 1 mps 593 mmHg 45%
    09:00 +12°C° 0 mm 2 mps 593 mmHg 42%
    10:00 +13°C° 0 mm 3 mps 593 mmHg 38%
    11:00 +14°C° 0 mm 4 mps 593 mmHg 34%
    12:00 +15°C° 0 mm 5 mps 592 mmHg 34%
    13:00 +15°C° 0 mm 5 mps 591 mmHg 33%
    14:00 +16°C° 0 mm 6 mps 590 mmHg 32%
    15:00 +15°C° 0 mm 5 mps 589 mmHg 36%
    16:00 +13°C° 0 mm 5 mps 588 mmHg 40%
    17:00 +12°C° 0 mm 4 mps 587 mmHg 43%
    18:00 +11°C° 0 mm 4 mps 587 mmHg 45%
    19:00 +10°C° 0 mm 4 mps 586 mmHg 47%
    20:00 +9°C° 0 mm 3 mps 586 mmHg 49%
    21:00 +9°C° 0 mm 3 mps 586 mmHg 50%
    22:00 +8°C° 0 mm 3 mps 585 mmHg 51%
    23:00 +8°C° 0 mm 3 mps 585 mmHg 52%

    26 October, Thursday

    Time Temperature Precipitation Wind Pressure Humidity
    00:00 +8°C° 0 mm 3 mps 584 mmHg 51%
    01:00 +7°C° 0 mm 3 mps 584 mmHg 51%
    02:00 +7°C° 0 mm 3 mps 584 mmHg 50%
    03:00 +7°C° 0 mm 3 mps 583 mmHg 49%
    04:00 +6°C° 0 mm 4 mps 583 mmHg 49%
    05:00 +6°C° 0 mm 4 mps 583 mmHg 48%
    06:00 +7°C° 0 mm 4 mps 584 mmHg 45%
    07:00 +8°C° 0 mm 4 mps 585 mmHg 42%
    08:00 +11°C° 0 mm 4 mps 585 mmHg 38%
    09:00 +13°C° 0 mm 4 mps 586 mmHg 34%
    10:00 +14°C° 0 mm 4 mps 587 mmHg 29%
    11:00 +17°C° 0 mm 4 mps 587 mmHg 25%
    12:00 +18°C° 0 mm 4 mps 587 mmHg 24%
    13:00 +18°C° 0 mm 4 mps 587 mmHg 23%
    14:00 +19°C° 0 mm 4 mps 587 mmHg 21%
    15:00 +17°C° 0 mm 4 mps 586 mmHg 25%
    16:00 +16°C° 0 mm 3 mps 586 mmHg 29%
    17:00 +13°C° 0 mm 3 mps 586 mmHg 33%
    18:00 +12°C° 0 mm 4 mps 586 mmHg 39%
    19:00 +10°C° 0 mm 4 mps 586 mmHg 44%
    20:00 +8°C° 0 mm 5 mps 587 mmHg 49%
    21:00 +7°C° 0 mm 4 mps 587 mmHg 55%
    22:00 +6°C° 0 mm 4 mps 587 mmHg 62%
    23:00 +5°C° 0 mm 4 mps 587 mmHg 68%

    27 October, Friday

    Time Temperature Precipitation Wind Pressure Humidity
    00:00 +4°C° 0 mm 4 mps 587 mmHg 71%
    01:00 +3°C° 0 mm 4 mps 587 mmHg 74%
    02:00 +1°C° 0 mm 4 mps 586 mmHg 76%
    03:00 +1°C° 0 mm 4 mps 586 mmHg 77%
    04:00 0°C° 0 mm 4 mps 586 mmHg 78%
    05:00 0°C° 0 mm 4 mps 586 mmHg 79%
    06:00 0°C° 0 mm 4 mps 587 mmHg 76%
    07:00 +1°C° 0 mm 4 mps 587 mmHg 74%
    08:00 +1°C° 0 mm 4 mps 588 mmHg 72%
    09:00 +3°C° 0 mm 4 mps 588 mmHg 67%
    10:00 +4°C° 0 mm 4 mps 588 mmHg 62%
    11:00 +5°C° 0 mm 4 mps 588 mmHg 57%
    12:00 +6°C° 0 mm 4 mps 588 mmHg 54%
    13:00 +6°C° 0 mm 4 mps 587 mmHg 52%
    14:00 +7°C° 0 mm 4 mps 587 mmHg 50%
    15:00 +7°C° 0 mm 4 mps 587 mmHg 52%
    16:00 +6°C° 0 mm 4 mps 586 mmHg 54%
    17:00 +6°C° 0 mm 4 mps 586 mmHg 56%
    18:00 +5°C° 0 mm 4 mps 586 mmHg 61%
    19:00 +3°C° 0 mm 3 mps 586 mmHg 67%
    20:00 +2°C° 0 mm 3 mps 586 mmHg 73%
    21:00 +1°C° 0 mm 3 mps 585 mmHg 75%
    22:00 +1°C° 0 mm 3 mps 585 mmHg 76%
    23:00 +1°C° 0 mm 3 mps 585 mmHg 78%
    Show more